Location: Oriwa
(40.7500°S, 175.3333°E)
Time: 14:16:20
(UTC+00:00)

CZ-2C R/B - Pass Details

Date: 03 February 2023
Orbit: 784 x 870 km, 98.3° (Epoch: 31 March)

Event Time Altitude Azimuth Distance (km) Brightness Sun altitude
Rises 16:15:16 0° 160° (SSE) 3,343 6.8 -13.0°
Reaches altitude 10° 16:17:47 10° 152° (SSE) 2,395 6.1 -12.6°
Maximum altitude 16:22:44 40° 83° (E) 1,170 3.9 -11.8°
Drops below altitude 10° 16:27:34 10° 13° (NNE) 2,345 4.8 -11.1°
Sets 16:30:00 0° 6° (N) 3,265 5.5 -10.7°
